Theta_e
299 298 299 299 302 303 302 302 304 301 302 304 302 308 309 311 312 312 314 312 313 313 313 313 313 317 316 311 313 317 315 314 314 313 313 313 312 313 314 317 318 318 319 321
299 299 299 299 301 303 300 302 300 300 301 305 305 305 308 310 312 314 312 309 310 309 311 313 312 313 312 309 311 317 315 314 315 312 312 312 311 311 315 315 315 315 314 317
298 299 299 299 298 300 301 300 301 299 297 299 305 306 308 311 310 310 311 309 308 310 311 311 311 314 310 309 309 308 309 312 311 312 313 312 310 309 310 312 310 310 309 316
298 299 298 298 298 299 300 301 303 299 300 301 304 307 308 308 311 308 308 309 309 310 310 310 309 311 312 308 305 306 309 309 309 310 311 307 306 307 308 309 308 307 307 310
296 297 297 296 298 301 297 299 303 304 302 301 302 304 311 309 309 310 307 309 309 309 309 309 310 312 311 308 305 308 307 309 308 309 308 305 304 303 302 303 303 303 307 307
297 297 296 297 298 299 293 297 301 302 302 304 303 302 305 308 308 308 307 307 308 310 309 308 306 308 309 307 305 305 305 306 307 308 307 305 301 306 306 307 306 307 307 306
297 297 297 298 298 299 298 300 301 304 304 304 304 305 304 307 308 309 309 308 308 308 305 304 305 307 307 305 306 306 306 305 305 307 301 303 306 305 306 306 303 303 303 302
296 297 298 298 298 298 298 301 301 303 303 305 305 306 305 305 306 308 309 308 307 305 303 303 302 301 302 303 304 305 304 304 303 305 306 307 306 305 302 301 302 299 300 300
296 297 297 298 298 298 299 299 299 300 303 302 305 305 306 307 307 306 305 306 304 302 301 301 306 305 303 303 302 302 301 303 303 305 306 304 303 304 302 302 300 296 295 295
298 298 297 298 299 300 299 298 299 300 301 300 304 306 306 307 305 305 303 303 302 302 300 303 305 307 304 304 305 302 302 303 305 305 305 305 304 303 303 300 298 294 294 292
297 297 298 297 300 300 299 298 298 300 299 299 303 303 304 306 305 304 301 300 300 301 303 306 306 308 307 307 304 303 304 304 304 304 304 305 298 301 302 295 294 293 293 290
296 297 297 297 299 299 298 298 298 300 297 300 300 300 300 302 304 301 301 302 301 302 303 302 304 307 304 306 308 306 303 301 303 302 301 297 296 296 296 296 293 292 291 290
297 297 298 299 298 297 297 298 299 299 301 301 300 300 299 300 301 303 301 301 302 303 303 303 305 305 304 304 303 304 305 304 299 299 297 295 295 295 294 293 292 290 290 289
299 299 298 297 296 296 298 298 298 300 301 301 299 299 300 300 301 302 302 302 302 301 302 303 304 305 305 305 304 303 303 302 300 299 297 295 294 293 292 291 290 289 287 286
297 297 297 295 296 297 297 298 299 300 301 299 299 299 300 300 300 301 301 301 300 301 301 301 303 303 302 304 302 303 303 300 298 301 296 296 294 292 291 290 290 289 288 288
295 294 295 296 296 298 296 295 299 299 300 298 300 299 300 301 301 301 301 301 300 300 300 300 303 304 302 301 302 302 300 300 300 297 295 293 293 292 291 290 290 289 288 287
296 296 296 297 297 296 297 299 299 300 300 298 298 298 299 300 301 300 300 300 300 301 298 299 300 301 302 298 301 300 299 296 294 293 293 293 293 292 291 291 290 289 288 287
296 296 296 296 296 298 298 296 298 300 302 301 299 299 298 300 300 300 299 300 300 299 300 298 300 299 300 300 297 298 297 296 295 295 294 293 293 291 291 290 289 288 288 287
295 296 296 297 297 298 297 297 298 300 302 299 299 299 298 300 300 300 299 300 299 299 300 300 299 298 299 300 296 295 295 296 296 295 293 293 292 291 289 289 289 288 287 286
295 296 297 297 299 296 295 297 298 299 298 300 300 300 299 300 298 299 299 298 299 300 299 298 297 297 301 299 296 295 296 296 296 294 293 292 291 290 289 289 288 287 286 285
296 297 297 296 295 299 299 297 298 298 299 299 301 299 299 299 298 299 299 299 298 300 299 298 297 297 296 296 295 294 295 295 295 293 291 290 290 289 289 289 288 286 285 282
297 296 296 298 299 298 298 298 297 299 299 299 299 299 299 300 300 297 297 299 297 301 297 297 295 298 296 294 295 295 294 294 294 294 292 290 290 289 288 285 283 281 280 279
296 298 298 298 296 294 296 296 298 298 298 299 299 298 298 299 298 294 296 293 295 298 293 296 298 298 297 296 294 293 293 293 293 292 291 289 288 286 284 281 279 279 279 278
296 295 291 294 294 297 299 301 298 296 297 299 298 297 296 294 294 294 293 295 296 293 295 300 297 297 295 294 294 293 293 292 289 288 286 284 282 281 281 280 279 279 277 277
295 296 295 295 296 295 297 294 296 295 297 297 296 295 295 293 290 294 295 293 294 294 301 298 296 295 294 293 293 292 289 287 285 284 283 281 281 280 278 279 279 278 276 276
295 295 296 295 294 296 297 297 298 297 295 294 295 296 293 295 295 296 294 299 299 298 296 295 294 292 292 291 290 289 288 286 283 282 282 280 279 278 278 277 277 276 277 277
296 295 296 298 296 297 296 297 294 295 295 297 295 294 298 295 297 299 297 296 297 294 293 292 292 291 289 288 286 286 284 283 282 281 280 280 279 278 276 276 276 276 276 276
Wind_Speed
18 18 17 17 22 22 16 3 4 8 16 5 2 7 6 4 12 16 7 6 8 9 8 8 8 8 5 5 5 15 4 1 5 8 3 7 9 17 14 3 2 2 4 2
19 19 18 17 20 27 12 4 2 7 4 6 7 4 13 13 9 12 6 7 7 3 3 2 2 4 3 1 4 4 7 3 3 1 3 3 5 4 5 6 3 4 2 2
19 19 19 19 18 24 20 4 4 1 1 1 4 7 8 8 12 12 13 5 10 2 5 5 2 3 4 4 3 1 2 2 4 4 3 1 3 10 10 6 3 1 3 5
19 18 21 21 20 23 17 3 3 5 5 9 7 8 5 16 9 7 13 9 8 6 5 6 7 4 2 3 5 1 2 3 3 3 6 6 8 3 5 8 5 5 4 8
21 21 23 24 26 26 10 2 3 5 3 13 18 13 7 16 17 9 16 8 8 10 7 4 2 7 5 4 4 5 1 3 0 3 8 4 5 6 5 4 5 1 14 10
22 23 26 25 23 28 3 6 5 4 2 8 12 17 17 8 13 10 10 9 9 8 8 5 4 6 5 2 6 5 6 3 3 3 7 3 3 2 3 9 13 4 4 8
22 24 26 25 23 31 10 8 1 2 2 4 13 12 20 16 11 8 9 5 6 3 9 4 6 8 6 9 7 5 1 5 2 1 5 4 4 6 9 12 10 10 11 10
27 26 26 26 26 29 20 5 4 1 4 4 8 16 11 18 8 4 7 4 8 9 8 6 3 3 3 2 4 7 8 3 2 3 3 6 6 3 2 4 4 6 6 11
29 28 27 31 29 28 22 7 8 1 1 4 7 7 11 3 4 3 3 8 5 6 4 3 4 4 5 5 5 7 5 3 3 1 3 5 3 7 7 3 2 6 6 4
23 26 23 30 27 38 26 7 9 4 2 3 8 3 5 7 5 3 5 4 4 4 2 2 3 3 7 6 8 5 3 1 3 2 2 2 1 6 3 4 3 7 4 3
26 25 23 20 33 36 24 11 9 1 1 4 6 5 3 4 5 4 6 4 3 2 3 3 2 1 1 3 2 7 4 5 3 3 2 4 6 1 3 6 7 9 8 9
31 29 26 24 28 31 22 4 12 3 2 1 7 14 6 4 3 4 4 6 5 4 3 2 2 4 1 5 3 2 1 4 4 2 2 5 7 7 3 8 10 7 8 10
33 28 29 32 29 27 20 9 9 4 2 1 3 2 4 0 4 5 4 2 3 2 3 2 1 2 3 2 2 4 3 4 4 4 5 6 7 7 10 10 11 10 9 11
39 37 33 30 26 24 12 13 11 5 2 2 2 2 2 3 9 13 9 6 6 4 3 1 1 2 3 1 3 3 4 5 7 5 8 9 8 7 10 11 11 12 10 11
32 32 31 27 26 24 12 12 4 7 1 2 2 5 9 9 10 10 9 8 4 2 1 2 1 1 3 2 3 3 3 5 4 3 14 4 11 12 12 11 12 12 12 12
27 27 27 26 24 21 8 1 2 9 5 2 2 3 3 9 10 9 4 2 1 1 3 2 2 2 3 3 2 4 6 7 3 5 8 12 15 13 12 12 12 12 12 15
26 26 22 25 20 17 2 2 6 12 9 2 2 2 4 5 0 2 2 4 2 2 1 2 3 1 2 2 3 7 11 12 15 16 19 11 13 8 12 13 17 19 17 18
23 23 20 19 15 8 3 2 10 7 3 2 3 1 2 2 2 2 2 1 2 4 1 2 3 1 2 3 5 10 9 13 13 8 8 13 12 14 12 17 17 12 10 12
24 25 25 15 1 3 3 8 4 1 1 3 2 4 3 2 1 2 3 2 2 2 1 1 3 1 0 6 12 11 8 5 8 11 14 16 15 14 13 12 12 11 9 10
26 20 5 1 3 9 10 1 2 3 2 2 2 3 1 3 0 1 2 2 3 1 3 2 3 1 2 9 10 11 8 9 9 13 13 14 14 12 12 10 11 11 11 15
6 2 2 3 11 1 1 1 2 1 1 1 1 3 4 1 3 2 1 2 1 2 3 3 1 0 2 10 10 8 9 7 8 9 8 10 10 10 8 9 15 18 18 15
4 10 7 4 2 1 4 1 2 1 3 1 4 4 3 1 3 3 3 2 3 1 1 3 0 1 5 7 11 10 8 8 7 13 11 14 14 15 16 16 16 17 23 25
6 3 3 2 3 4 4 3 2 2 1 1 3 3 2 3 3 2 3 4 1 1 2 2 1 5 5 8 8 8 9 12 12 11 16 21 18 24 22 16 21 25 23 22
2 3 4 2 1 2 3 2 2 2 3 5 4 3 3 1 4 1 4 2 2 2 1 2 2 6 7 8 7 10 8 9 11 12 18 19 21 19 20 22 24 25 23 21
3 4 3 3 1 3 2 2 2 3 2 4 3 3 3 1 3 1 3 3 2 3 1 1 4 7 8 9 9 10 10 10 9 15 16 18 20 19 17 20 21 24 25 22
3 5 3 1 4 3 3 3 2 4 1 2 3 2 3 1 4 2 4 2 1 2 2 2 6 7 8 8 8 8 12 15 14 14 17 18 18 18 18 20 22 24 24 22
3 2 1 3 4 3 3 3 3 3 3 1 2 3 3 1 0 3 2 2 2 3 2 3 6 8 8 8 9 12 14 15 15 16 16 17 20 23 20 17 20 19 18 19
Wind_Direction
243 243 240 235 224 212 206 213 211 176 154 180 236 211 210 211 250 247 257 243 220 237 249 245 258 188 219 327 356 205 162 80 223 218 155 228 224 220 207 180 240 327 347 111
243 242 242 228 223 215 171 173 175 184 166 204 212 240 240 242 236 222 216 222 208 268 264 237 309 109 174 223 42 249 140 188 203 275 10 275 241 217 165 186 153 219 261 107
244 243 235 240 239 219 186 145 173 136 136 286 230 210 225 226 268 243 225 222 243 222 249 208 220 134 197 240 182 247 165 249 197 171 167 287 229 238 216 159 127 197 282 131
245 243 239 236 228 217 186 223 168 180 182 219 215 219 238 219 229 257 212 211 207 183 236 225 225 156 152 234 116 165 109 258 261 312 194 182 286 318 248 215 191 155 229 124
244 246 242 233 225 195 170 187 185 178 282 201 203 219 203 230 221 220 215 189 208 207 221 217 194 140 206 173 145 169 99 278 79 336 269 195 254 313 307 307 319 18 116 105
244 241 238 230 222 191 153 225 263 161 282 194 183 214 221 250 238 226 229 201 205 225 212 117 326 120 161 221 149 162 153 168 115 232 224 307 321 347 359 85 44 19 61 120
242 238 234 215 201 196 164 188 71 305 254 215 201 208 211 233 243 224 260 121 112 109 111 150 80 129 144 147 145 133 219 167 244 203 92 201 121 53 78 97 62 44 86 107
236 234 222 213 209 203 194 138 140 224 248 289 246 220 219 223 252 239 215 206 136 171 101 68 64 16 78 191 190 197 192 173 143 143 178 117 142 51 133 139 84 49 62 119
229 224 224 213 208 209 184 142 159 238 252 232 301 263 227 158 148 144 238 224 151 120 115 127 153 182 178 170 185 218 226 214 133 163 161 208 193 142 121 77 174 76 67 26
214 211 207 214 226 191 182 168 187 243 255 274 309 176 185 140 115 115 227 111 85 82 100 124 163 218 181 172 173 177 162 116 177 232 205 133 249 76 100 88 198 104 85 45
210 218 213 224 172 181 174 187 208 329 252 337 19 53 97 139 144 155 193 74 337 75 125 147 178 184 230 84 198 159 150 168 178 204 173 195 8 312 194 138 104 108 97 93
223 210 202 192 184 178 174 155 210 135 109 292 72 83 42 88 295 135 181 160 155 177 147 197 147 163 51 140 149 51 107 163 136 30 104 75 54 88 74 121 126 109 108 111
198 193 190 167 172 175 174 154 171 166 243 264 120 302 348 81 39 89 129 58 117 63 141 164 198 149 126 144 188 98 115 153 94 155 133 116 111 99 95 105 108 115 117 117
143 150 157 166 170 172 166 159 206 231 113 108 355 69 86 43 76 76 74 116 79 94 77 103 159 119 40 91 149 114 188 115 123 82 123 128 132 119 113 112 114 114 112 121
142 149 157 162 161 170 164 166 240 163 196 135 133 49 34 76 108 103 100 100 101 115 73 77 131 91 74 60 81 27 16 153 159 200 164 128 143 135 142 135 136 133 136 127
145 154 156 155 167 160 136 56 215 189 215 98 71 305 41 51 61 66 82 166 217 183 129 135 70 350 107 102 83 105 61 56 126 125 102 111 127 136 143 142 146 138 135 134
136 143 152 149 146 156 166 174 179 193 210 103 79 64 352 344 63 23 1 12 26 76 94 52 132 191 95 90 119 115 101 101 99 108 107 110 140 143 152 149 137 136 133 133
141 144 148 148 152 194 282 254 163 176 199 105 100 87 46 318 315 40 352 31 35 6 125 14 102 15 60 83 110 113 116 118 129 157 105 134 136 141 145 137 137 140 138 136
138 134 129 124 104 224 164 145 130 85 155 125 111 135 178 143 312 111 360 81 50 285 44 66 72 331 151 159 145 133 142 131 149 122 130 131 143 142 145 149 145 136 128 115
129 121 72 55 218 142 123 67 28 11 325 23 103 98 142 119 159 319 72 14 158 119 254 73 69 157 114 122 135 140 135 142 142 135 142 151 143 150 153 154 140 137 128 125
128 163 110 155 149 155 166 108 104 290 37 90 237 124 123 265 104 176 110 193 343 95 262 116 213 43 109 111 128 142 130 138 141 130 128 128 137 142 146 132 133 134 128 118
162 129 126 142 189 63 95 97 354 107 154 49 122 149 137 24 81 89 332 104 41 90 277 73 52 50 108 105 120 125 128 129 124 132 125 128 129 124 111 110 113 114 128 134
129 58 53 82 344 63 129 172 260 73 32 326 84 60 117 44 55 36 73 64 184 135 53 204 76 112 108 107 109 98 106 117 118 110 114 110 107 113 119 115 123 129 129 138
106 106 41 92 307 61 36 25 86 240 88 86 89 48 97 72 49 353 87 253 54 14 198 174 143 136 126 120 119 117 116 103 104 107 110 111 112 111 124 132 141 138 133 140
52 32 63 66 75 46 19 340 41 344 106 84 60 44 85 48 78 48 98 29 249 188 55 85 130 130 131 126 125 121 115 114 111 119 117 116 119 119 119 138 147 144 138 138
62 35 54 64 79 87 89 55 31 359 32 51 69 127 70 228 130 109 213 176 127 111 90 95 118 115 125 122 119 117 122 120 115 118 123 123 125 129 128 140 143 145 146 147
51 31 321 74 65 67 56 33 360 326 55 192 106 78 196 120 124 184 36 93 90 125 94 109 130 131 126 116 111 111 116 116 121 123 125 126 129 133 129 130 144 147 152 149